SCP
0 0 0 0 0 0 0 0 0 0 0 0 0 0 0 0 0 0 0 0 0 0 0 0 0 0 0 0 0 0 0 0 0 0 1 1 1 1
0 0 0 0 0 0 0 0 0 0 0 0 0 0 0 0 0 0 0 0 0 0 0 0 0 0 0 0 0 0 0 0 0 0 0 1 1 1
0 0 0 0 0 0 0 0 0 0 0 0 0 0 0 0 0 0 0 0 0 0 0 0 0 0 0 0 0 0 0 0 0 0 0 0 1 1
0 0 0 0 0 0 0 0 0 0 0 0 0 0 0 0 0 0 0 0 0 0 0 0 0 0 0 0 0 0 0 0 0 0 0 0 0 1
0 0 0 0 0 0 0 0 0 0 0 0 0 0 0 0 0 0 0 0 0 0 0 0 0 0 0 0 0 0 0 0 0 0 0 0 0 0
0 0 0 0 0 0 0 0 0 0 0 0 0 0 0 0 0 0 0 0 0 0 0 0 0 0 0 0 0 0 0 0 0 0 0 0 0 0
0 0 0 0 0 0 0 0 0 0 0 0 0 0 0 0 0 0 0 0 0 0 0 0 0 0 0 0 0 0 0 0 0 0 0 0 0 0
0 0 0 0 0 0 0 0 0 0 0 0 0 0 0 0 0 0 0 0 0 0 0 0 0 0 0 0 0 0 0 0 0 0 0 0 0 0
0 0 0 0 0 0 0 0 0 0 0 0 0 0 0 0 0 0 0 0 0 0 0 0 0 0 0 0 0 0 0 0 0 0 0 0 0 0
0 0 0 0 0 0 0 0 0 0 0 0 0 0 0 0 0 0 0 0 0 0 0 0 0 0 0 0 0 0 0 0 0 0 0 0 0 0
0 0 0 0 0 0 0 0 0 0 0 0 0 0 0 0 0 0 0 0 0 0 0 0 0 0 0 0 0 0 0 0 0 0 0 0 0 0
0 0 0 0 0 0 0 0 0 0 0 0 0 0 0 0 0 0 0 0 0 0 0 0 0 0 0 0 0 0 0 0 0 0 0 0 0 0
0 0 0 0 0 0 0 0 0 0 0 0 0 0 0 0 0 0 0 0 0 0 0 0 0 0 0 0 0 0 0 0 0 0 0 0 0 0
0 0 0 0 0 0 0 0 0 0 0 0 0 0 0 0 0 0 0 0 0 0 0 0 0 0 0 0 0 0 0 0 0 0 0 0 0 0
0 0 0 0 0 0 0 0 0 0 0 0 0 0 0 0 0 0 0 0 0 0 0 0 0 0 0 0 0 0 0 0 0 0 0 0 0 0
0 0 0 0 0 0 0 0 0 0 0 0 0 0 0 0 0 0 0 0 0 0 0 0 0 0 0 0 0 0 0 0 0 0 0 0 0 0
0 0 0 0 0 0 0 0 0 0 0 0 0 0 0 0 0 0 0 0 0 0 0 0 0 0 0 0 0 0 0 0 0 0 0 0 0 0
0 0 0 0 0 0 0 0 0 0 0 0 0 0 0 0 0 0 0 0 0 0 0 0 0 0 0 0 0 0 0 0 0 0 0 0 0 0
0 0 0 0 0 0 0 0 0 0 0 0 0 0 0 0 0 0 0 0 0 0 0 0 0 0 0 0 0 0 0 0 0 0 0 0 0 0
0 0 0 0 0 0 0 0 0 0 0 0 0 0 0 0 0 0 0 0 0 0 0 0 0 0 0 0 0 0 0 0 0 0 0 0 0 0
0 0 0 0 0 0 0 0 0 0 0 0 0 0 0 0 0 0 0 0 0 0 0 0 0 0 0 0 0 0 0 0 0 0 0 0 0 0
0 0 0 0 0 0 0 0 0 0 0 0 0 0 0 0 0 0 0 0 0 0 0 0 0 0 0 0 0 0 0 0 0 0 0 0 0 0
0 0 0 0 0 0 0 0 0 0 0 0 0 0 0 0 0 0 0 0 0 0 0 0 0 0 0 0 0 0 0 0 0 0 0 0 0 0
Wind_Speed
14 14 11 9 8 7 7 7 7 6 7 7 6 6 5 5 12 9 7 19 26 27 28 28 29 30 30 31 32 33 33 34 34 34 35 36 37 37
11 13 13 9 8 8 8 7 8 8 7 6 6 5 5 8 14 10 8 23 27 28 28 29 29 30 31 31 32 33 34 34 34 35 35 35 36 36
14 14 15 12 9 9 8 8 9 9 11 8 6 6 7 8 10 8 9 10 12 26 28 29 30 30 31 31 32 33 34 34 35 35 35 35 36 36
16 15 16 13 14 11 10 11 11 10 10 11 8 7 9 8 9 10 12 12 9 21 27 29 29 30 30 31 31 32 33 33 34 34 34 34 35 36
16 17 16 15 16 13 12 12 10 10 9 9 10 7 8 8 9 11 12 10 12 16 23 25 27 28 29 31 31 32 33 33 33 33 33 33 34 35
16 16 16 17 16 15 13 13 11 10 9 9 10 9 9 8 8 9 9 7 9 11 15 18 23 28 29 30 31 31 32 31 32 32 32 32 32 33
15 15 16 20 23 19 14 12 12 11 10 10 10 9 10 8 8 7 9 8 8 8 8 10 11 10 12 21 26 29 31 32 32 32 32 31 31 32
15 14 16 22 27 32 31 27 21 15 13 11 10 11 11 9 7 7 8 9 10 5 7 10 8 10 9 9 21 29 31 32 32 31 31 31 30 31
14 13 13 16 23 17 23 30 27 29 25 15 13 13 11 9 8 9 9 10 12 6 7 12 8 11 9 13 26 29 30 30 30 30 30 30 29 30
14 14 15 14 15 17 15 15 14 15 17 14 11 11 10 8 9 10 11 11 10 7 7 12 10 10 11 9 21 27 28 27 28 28 28 28 28 29
14 15 16 15 23 28 17 15 15 13 19 24 22 20 23 23 17 9 8 9 11 7 4 8 10 11 10 10 14 23 24 25 26 27 27 27 26 26
11 14 23 22 25 28 17 14 15 13 10 10 14 17 14 15 20 11 6 8 10 8 4 5 7 8 9 7 6 7 11 20 26 26 26 26 26 16
10 11 12 25 27 27 23 14 17 13 9 9 9 8 7 7 7 7 7 7 9 9 5 4 7 7 10 11 9 8 8 9 11 15 20 24 24 18
10 8 11 22 25 26 20 18 22 18 7 7 7 7 7 7 6 7 8 8 9 11 9 7 9 10 11 13 12 7 6 8 10 11 10 17 19 21
9 15 17 21 22 17 21 22 17 9 6 7 7 7 6 6 5 5 6 7 8 9 10 10 10 10 11 13 13 11 11 9 8 9 9 9 9 10
9 14 20 20 16 14 13 12 8 6 7 7 6 5 4 4 4 4 5 5 6 7 8 10 11 12 12 13 13 13 10 8 7 8 10 10 9 9
6 6 6 6 7 6 6 6 5 5 7 5 5 5 5 5 5 4 4 5 7 8 8 6 7 9 12 12 12 12 11 10 10 9 10 11 9 8
11 7 7 7 7 7 7 6 6 6 5 5 5 5 5 5 5 4 5 6 7 8 8 7 6 7 7 9 14 13 10 10 9 9 9 10 11 8
9 6 6 7 7 6 6 6 6 6 5 5 5 5 5 5 5 6 6 6 7 8 7 6 6 7 11 11 7 10 9 9 8 8 8 9 10 9
5 6 6 6 6 6 6 6 5 5 4 4 4 4 4 5 6 7 6 7 8 8 8 6 6 7 9 11 10 8 12 10 9 9 8 8 9 12
5 5 5 6 6 6 6 5 5 5 4 4 5 5 5 5 7 7 7 12 10 8 9 8 8 14 9 7 9 9 7 12 14 10 8 7 7 7
5 5 5 6 5 5 5 5 5 5 5 5 5 5 5 6 7 8 7 7 7 8 9 8 7 7 7 9 11 11 10 8 11 18 19 16 8 5
4 5 5 5 5 5 5 5 6 5 5 5 5 5 5 5 6 6 7 7 7 8 9 8 7 6 7 8 9 9 11 10 7 7 8 15 21 24
Wind_Direction
217 215 217 214 209 207 203 196 200 226 235 229 233 231 232 237 257 260 248 266 275 278 280 282 284 284 286 286 287 287 286 285 284 284 284 284 284 284
214 215 217 214 212 209 210 210 210 220 236 223 227 236 252 261 266 265 255 272 276 279 281 283 284 284 285 285 285 285 284 283 282 282 282 282 283 283
216 215 217 210 210 211 211 213 218 219 240 244 241 245 248 255 266 264 263 262 265 273 278 281 282 283 284 284 285 284 284 283 282 282 281 281 281 282
216 215 216 212 213 212 213 217 221 221 229 244 247 245 248 251 257 260 266 265 258 271 277 280 282 283 284 285 286 285 284 283 281 280 280 280 280 281
215 215 214 211 215 214 215 219 222 226 226 237 249 248 252 252 258 262 261 261 264 271 277 280 282 284 285 286 286 285 284 282 281 279 278 278 278 278
215 214 213 213 215 215 218 220 221 224 227 235 245 250 253 249 250 257 263 253 261 269 274 277 279 283 285 286 286 286 285 284 281 280 278 277 276 276
217 215 215 216 219 219 219 218 217 222 226 232 241 247 249 247 247 249 262 266 259 257 266 269 274 272 276 279 283 284 284 283 282 280 278 277 276 276
219 216 218 225 229 230 229 226 220 220 224 228 236 241 245 241 247 252 262 272 275 239 255 270 268 271 270 266 276 281 283 283 282 281 279 277 275 275
218 216 219 223 227 229 236 237 235 232 229 226 235 240 243 241 245 255 256 260 268 267 274 279 271 273 273 278 284 285 286 285 285 283 280 278 276 274
217 216 219 222 222 222 224 230 236 239 239 235 235 242 244 244 239 250 260 267 268 261 256 278 281 278 281 278 284 285 287 289 290 288 284 279 276 274
218 217 218 220 226 228 224 224 231 236 244 245 246 249 253 257 257 257 257 270 279 273 242 265 280 285 280 276 278 285 290 293 294 293 290 286 281 275
221 220 224 223 226 230 225 220 228 229 226 240 249 256 257 260 265 258 243 260 274 280 240 252 278 294 291 267 265 283 290 291 294 294 293 290 287 279
226 221 220 228 230 231 230 223 230 228 218 226 236 239 240 240 243 239 227 233 254 263 258 263 277 277 275 284 283 276 276 283 290 290 292 292 288 281
227 222 218 225 230 233 234 231 233 236 220 221 231 234 234 236 235 232 230 230 237 252 260 257 269 275 279 282 285 281 270 275 281 283 283 287 287 282
224 224 223 226 228 232 235 234 233 223 210 220 229 232 229 231 232 236 241 244 249 251 256 253 258 266 267 274 280 283 289 283 271 275 283 285 284 284
238 230 226 227 225 222 228 233 221 208 209 220 225 229 228 231 235 237 250 257 266 270 255 249 251 257 266 269 273 279 277 277 281 284 287 284 277 273
228 213 207 208 208 204 206 210 205 209 223 213 217 226 234 241 245 241 248 258 265 275 280 267 251 250 255 264 271 270 272 273 272 276 281 282 277 270
234 213 206 204 204 203 205 204 204 207 210 212 215 224 234 241 252 254 254 257 265 270 274 278 281 282 271 256 246 261 265 268 272 273 272 277 279 274
234 212 203 198 198 198 199 199 204 206 201 208 218 223 233 244 254 260 262 263 267 270 272 274 276 280 287 289 267 245 260 274 277 274 269 267 274 280
217 204 199 194 191 194 197 197 199 198 199 208 216 222 229 245 256 260 262 263 270 275 278 273 267 267 273 282 284 275 266 267 271 272 273 272 269 274
200 197 192 186 186 188 190 191 192 197 202 209 218 224 230 242 253 258 262 270 276 277 278 278 270 281 280 275 276 275 264 262 265 267 268 271 272 267
192 190 185 183 182 181 184 185 191 201 206 213 220 225 231 240 252 259 261 266 270 271 275 278 277 280 273 273 277 283 285 279 269 270 264 254 254 254
192 183 179 180 179 177 180 187 195 206 210 215 222 227 232 244 252 258 262 265 271 275 279 283 283 277 274 273 277 281 284 285 281 276 268 257 252 257